Terminal Aerodrome Forecast
Issued by NWS Albuquerque, NM

Home | Current Version | Previous Version | Text Only | Print | Product List | Glossary On
Versions: 1 2 3 4 5 6 7 8 9 10 11 12 13 14 15 16 17 18
000
FTUS45 KABQ 021727
TAFABQ
TAF
KABQ 021727Z 0218/0318 VRB06KT P6SM SCT070 SCT110
     FM022200 25008KT P6SM VCTS BKN050CB BKN100
      TEMPO 0222/0301 25012G27KT
     FM030300 32006KT P6SM VCSH BKN060
     FM030600 VRB05KT P6SM FEW050 BKN070=

USA.gov is the U.S. government's official web portal to all federal, state and local government web resources and services.